When you browse on this site, cookies collect data to enhance your experience and personalize the content and advertising you see.
Visit our Privacy Policy to learn more. By continuing to use the site, you agree to this use of cookies and data.
  • In Czech Republic
  • List of Countries
  • For 7 days
  • Water Temperature
  • Weather Map
  • Weather Widgets
  • user-avatar
    Login

    Hourly Weather Shaki

    Today, 22 August, Thursday

    Time Temperature Precipitation Wind Pressure Humidity
    00:00 +26°C° 0 mm 2 mps 734 mmHg 31%
    01:00 +26°C° 0 mm 2 mps 734 mmHg 32%
    02:00 +26°C° 0 mm 2 mps 734 mmHg 33%
    03:00 +25°C° 0 mm 1 mps 734 mmHg 36%
    04:00 +25°C° 0 mm 1 mps 734 mmHg 36%
    05:00 +25°C° 0 mm 1 mps 734 mmHg 36%
    06:00 +26°C° 0 mm 1 mps 734 mmHg 36%
    07:00 +28°C° 0 mm 1 mps 734 mmHg 32%
    08:00 +30°C° 0 mm 2 mps 734 mmHg 27%
    09:00 +34°C° 0 mm 2 mps 734 mmHg 23%
    10:00 +35°C° 0 mm 3 mps 734 mmHg 21%
    11:00 +36°C° 0 mm 3 mps 733 mmHg 19%
    12:00 +38°C° 0 mm 4 mps 733 mmHg 18%
    13:00 +38°C° 0 mm 4 mps 733 mmHg 16%
    14:00 +40°C° 0 mm 5 mps 733 mmHg 15%
    15:00 +41°C° 0 mm 5 mps 732 mmHg 14%
    16:00 +40°C° 0 mm 5 mps 732 mmHg 16%
    17:00 +37°C° 0 mm 4 mps 732 mmHg 19%
    18:00 +36°C° 0 mm 4 mps 732 mmHg 21%
    19:00 +34°C° 0 mm 4 mps 732 mmHg 24%
    20:00 +32°C° 0 mm 4 mps 733 mmHg 28%
    21:00 +29°C° 0 mm 4 mps 733 mmHg 31%
    22:00 +28°C° 0 mm 3 mps 733 mmHg 34%
    23:00 +27°C° 0 mm 3 mps 733 mmHg 36%

    Tomorrow, 23 August, Friday

    Time Temperature Precipitation Wind Pressure Humidity
    00:00 +26°C° 0 mm 2 mps 733 mmHg 38%
    01:00 +26°C° 0 mm 2 mps 733 mmHg 38%
    02:00 +26°C° 0 mm 2 mps 733 mmHg 39%
    03:00 +25°C° 0 mm 1 mps 734 mmHg 39%
    04:00 +25°C° 0 mm 1 mps 734 mmHg 38%
    05:00 +25°C° 0 mm 1 mps 734 mmHg 36%
    06:00 +25°C° 0 mm 1 mps 734 mmHg 35%
    07:00 +28°C° 0 mm 1 mps 734 mmHg 31%
    08:00 +30°C° 0 mm 2 mps 734 mmHg 28%
    09:00 +34°C° 0 mm 2 mps 734 mmHg 25%
    10:00 +36°C° 0 mm 4 mps 734 mmHg 22%
    11:00 +39°C° 0 mm 5 mps 734 mmHg 20%
    12:00 +41°C° 0 mm 7 mps 734 mmHg 18%
    13:00 +41°C° 0 mm 7 mps 733 mmHg 17%
    14:00 +41°C° 0 mm 8 mps 733 mmHg 16%
    15:00 +43°C° 0 mm 8 mps 733 mmHg 15%
    16:00 +40°C° 0 mm 8 mps 733 mmHg 17%
    17:00 +39°C° 0 mm 7 mps 733 mmHg 18%
    18:00 +38°C° 0 mm 6 mps 733 mmHg 20%
    19:00 +35°C° 0 mm 5 mps 733 mmHg 22%
    20:00 +33°C° 0 mm 4 mps 733 mmHg 24%
    21:00 +29°C° 0 mm 3 mps 734 mmHg 26%
    22:00 +29°C° 0 mm 3 mps 734 mmHg 26%
    23:00 +28°C° 0 mm 3 mps 734 mmHg 26%

    Day after tomorrow, 24 August, Saturday

    Time Temperature Precipitation Wind Pressure Humidity
    00:00 +28°C° 0 mm 2 mps 734 mmHg 26%
    01:00 +27°C° 0 mm 2 mps 734 mmHg 27%
    02:00 +26°C° 0 mm 2 mps 733 mmHg 27%
    03:00 +25°C° 0 mm 1 mps 733 mmHg 28%
    04:00 +26°C° 0 mm 1 mps 733 mmHg 28%
    05:00 +26°C° 0 mm 1 mps 734 mmHg 28%
    06:00 +26°C° 0 mm 1 mps 734 mmHg 29%
    07:00 +29°C° 0 mm 1 mps 734 mmHg 26%
    08:00 +31°C° 0 mm 1 mps 734 mmHg 23%
    09:00 +35°C° 0 mm 2 mps 734 mmHg 20%
    10:00 +37°C° 0 mm 3 mps 734 mmHg 19%
    11:00 +38°C° 0 mm 4 mps 734 mmHg 17%
    12:00 +41°C° 0 mm 5 mps 734 mmHg 16%
    13:00 +41°C° 0 mm 6 mps 734 mmHg 16%
    14:00 +43°C° 0 mm 7 mps 733 mmHg 15%
    15:00 +43°C° 0 mm 8 mps 733 mmHg 15%
    16:00 +41°C° 0 mm 8 mps 733 mmHg 17%
    17:00 +40°C° 0 mm 7 mps 733 mmHg 18%
    18:00 +38°C° 0 mm 7 mps 733 mmHg 19%
    19:00 +35°C° 0 mm 5 mps 734 mmHg 22%
    20:00 +33°C° 0 mm 4 mps 735 mmHg 24%
    21:00 +30°C° 0 mm 3 mps 735 mmHg 27%
    22:00 +30°C° 0 mm 2 mps 735 mmHg 27%
    23:00 +29°C° 0 mm 2 mps 735 mmHg 28%

    25 August, Sunday

    Time Temperature Precipitation Wind Pressure Humidity
    00:00 +29°C° 0 mm 2 mps 735 mmHg 28%
    01:00 +28°C° 0 mm 1 mps 735 mmHg 31%
    02:00 +27°C° 0 mm 1 mps 735 mmHg 33%
    03:00 +26°C° 0 mm 1 mps 734 mmHg 35%
    04:00 +27°C° 0 mm 1 mps 735 mmHg 36%
    05:00 +27°C° 0 mm 1 mps 735 mmHg 38%
    06:00 +27°C° 0 mm 1 mps 735 mmHg 39%
    07:00 +29°C° 0 mm 1 mps 735 mmHg 35%
    08:00 +31°C° 0 mm 1 mps 735 mmHg 31%
    09:00 +33°C° 0 mm 1 mps 735 mmHg 27%
    10:00 +36°C° 0 mm 2 mps 735 mmHg 24%
    11:00 +37°C° 0 mm 3 mps 734 mmHg 20%
    12:00 +40°C° 0 mm 4 mps 734 mmHg 17%
    13:00 +40°C° 0 mm 4 mps 734 mmHg 16%
    14:00 +40°C° 0 mm 5 mps 733 mmHg 16%
    15:00 +41°C° 0 mm 5 mps 733 mmHg 15%
    16:00 +40°C° 0 mm 5 mps 733 mmHg 17%
    17:00 +37°C° 0 mm 5 mps 733 mmHg 19%
    18:00 +36°C° 0 mm 5 mps 733 mmHg 21%
    19:00 +34°C° 0 mm 4 mps 734 mmHg 23%
    20:00 +30°C° 0 mm 4 mps 734 mmHg 24%
    21:00 +28°C° 0 mm 4 mps 734 mmHg 26%
    22:00 +27°C° 0 mm 3 mps 734 mmHg 27%
    23:00 +26°C° 0 mm 2 mps 734 mmHg 28%

    26 August, Monday

    Time Temperature Precipitation Wind Pressure Humidity
    00:00 +26°C° 0 mm 2 mps 734 mmHg 30%
    01:00 +25°C° 0 mm 1 mps 734 mmHg 31%
    02:00 +25°C° 0 mm 1 mps 734 mmHg 32%
    03:00 +25°C° 0 mm 1 mps 734 mmHg 33%
    04:00 +25°C° 0 mm 1 mps 734 mmHg 34%
    05:00 +25°C° 0 mm 1 mps 734 mmHg 34%
    06:00 +25°C° 0 mm 1 mps 734 mmHg 35%
    07:00 +27°C° 0 mm 1 mps 734 mmHg 31%
    08:00 +29°C° 0 mm 1 mps 734 mmHg 27%
    09:00 +32°C° 0 mm 2 mps 735 mmHg 23%
    10:00 +32°C° 0 mm 2 mps 734 mmHg 22%
    11:00 +34°C° 0 mm 2 mps 734 mmHg 22%
    12:00 +35°C° 0 mm 2 mps 734 mmHg 21%
    13:00 +34°C° 0 mm 1 mps 734 mmHg 21%
    14:00 +35°C° 0 mm 1 mps 734 mmHg 20%
    15:00 +35°C° 0 mm 1 mps 734 mmHg 20%
    16:00 +34°C° 0 mm 1 mps 734 mmHg 22%
    17:00 +33°C° 0 mm 1 mps 734 mmHg 24%
    18:00 +32°C° 0 mm 1 mps 734 mmHg 27%
    19:00 +31°C° 0.1 mm 1 mps 735 mmHg 29%
    20:00 +30°C° 0.1 mm 2 mps 736 mmHg 32%
    21:00 +29°C° 0.1 mm 2 mps 737 mmHg 35%
    22:00 +28°C° 0 mm 2 mps 737 mmHg 37%
    23:00 +27°C° 0 mm 2 mps 737 mmHg 39%

    27 August, Tuesday

    Time Temperature Precipitation Wind Pressure Humidity
    00:00 +26°C° 0 mm 2 mps 737 mmHg 42%
    01:00 +26°C° 0 mm 2 mps 737 mmHg 42%
    02:00 +25°C° 0 mm 2 mps 737 mmHg 43%
    03:00 +25°C° 0 mm 2 mps 737 mmHg 44%
    04:00 +25°C° 0 mm 2 mps 737 mmHg 43%
    05:00 +25°C° 0 mm 2 mps 737 mmHg 42%
    06:00 +25°C° 0 mm 3 mps 738 mmHg 42%
    07:00 +28°C° 0 mm 3 mps 738 mmHg 37%
    08:00 +30°C° 0 mm 4 mps 738 mmHg 33%
    09:00 +33°C° 0 mm 5 mps 738 mmHg 29%
    10:00 +34°C° 0 mm 6 mps 738 mmHg 27%
    11:00 +35°C° 0 mm 6 mps 738 mmHg 25%
    12:00 +36°C° 0 mm 6 mps 737 mmHg 23%
    13:00 +36°C° 0 mm 7 mps 737 mmHg 23%
    14:00 +36°C° 0 mm 7 mps 737 mmHg 22%
    15:00 +38°C° 0 mm 8 mps 736 mmHg 21%
    16:00 +35°C° 0 mm 7 mps 736 mmHg 23%
    17:00 +34°C° 0 mm 7 mps 737 mmHg 25%
    18:00 +33°C° 0 mm 6 mps 737 mmHg 27%
    19:00 +30°C° 0 mm 5 mps 737 mmHg 30%
    20:00 +28°C° 0 mm 5 mps 737 mmHg 34%
    21:00 +26°C° 0 mm 4 mps 737 mmHg 37%
    22:00 +26°C° 0 mm 3 mps 737 mmHg 40%
    23:00 +25°C° 0 mm 3 mps 737 mmHg 42%
    Show more